Regional Weather Roundup
Issued by NWS Albany, NY

Home | Current Version | Previous Version | Graphics & Text | Print | Product List | Glossary Off
Versions: 1 2 3 4 5 6 7 8 9 10 11 12 13 14 15 16 17 18 19 20 21 22 23 24 25 26 27 28 29 30 31 32 33 34 35 36 37 38 39 40 41 42 43 44 45 46 47 48 49 50

616
ASUS41 KALY 161210
RWRALY

NEW YORK STATE HOURLY WEATHER ROUNDUP
NATIONAL WEATHER SERVICE ALBANY NY
700 AM EST MON JAN 16 2017

NOTE: "FAIR" INDICATES FEW OR NO CLOUDS BELOW 12,000 FEET WITH NO
SIGNIFICANT WEATHER AND/OR NO OBSTRUCTIONS TO VISIBILITY.

NYZ032-033-038>043-046>054-057>066-NYZ062>081-082-084-161300-
EAST


CITY           SKY/WX    TMP DP  RH WIND       PRES   REMARKS
ALBANY         CLEAR     15  10  80 CALM      30.43S
GLENS FALLS    CLEAR     11   5  77 CALM      30.41S
POUGHKEEPSIE   CLEAR     14  11  87 CALM      30.45R
NEWBURGH       CLEAR     16  16 100 CALM      30.44R
MONTGOMERY     CLEAR     15  12  88 SW5       30.42S WCI   8
WHITE PLAINS   CLEAR     21  17  84 W3        30.43R
ISLIP          CLEAR     23  19  85 CALM      30.44R
NEW YORK CITY  CLEAR     32  18  56 CALM      30.46R
CENTRAL PARK   CLEAR     30  19  63 N3        30.47R
$$

NYZ005>009-017-018-044>046-055-056-161300-
CENTRAL


CITY           SKY/WX    TMP DP  RH WIND       PRES   REMARKS
FULTON         CLEAR     18  15  88 CALM      30.37S
SYRACUSE       PTCLDY    19  15  84 CALM      30.37S
ROME           CLEAR     16  14  92 E5        30.40S WCI   9
ELMIRA         CLOUDY    12   7  80 CALM      30.39R
BINGHAMTON     CLOUDY    19  15  84 SW8       30.33R WCI   9
MONTICELLO     CLOUDY    10   7  85 CALM      30.38S
$$

NYZ026>034-041>043-087-161300-
NORTH


CITY           SKY/WX    TMP DP  RH WIND       PRES   REMARKS
WATERTOWN      CLEAR     25  19  78 S7        30.35S WCI  17
FORT DRUM      NOT AVBL
OGDENSBURG     CLOUDY    26  23  88 MISG      30.31F
MASSENA        CLOUDY    25  20  81 S9        30.32F WCI  15
SARANAC LAKE   CLOUDY    16  12  84 MISG      30.25S
PLATTSBURGH    CLEAR     13   8  81 CALM      30.34F
$$

NYZ001>004-010>016-019>021-085-161300-
WEST


CITY           SKY/WX    TMP DP  RH WIND       PRES   REMARKS
NIAGARA FALLS  CLEAR     23  19  85 S8        30.35S WCI  14
BUFFALO        PTCLDY    21  16  81 S6        30.35S WCI  13
DUNKIRK        CLEAR     26  19  74 S7        30.36F WCI  18
JAMESTOWN      CLOUDY    19  14  79 S5        30.30S WCI  13
WELLSVILLE     CLOUDY    23  15  71 SW6       30.31R WCI  16
ROCHESTER      CLEAR     20  16  84 SW6       30.37R WCI  12
PENN YAN       CLEAR     22  17  81 SW9       30.36R WCI  12
$$

             KEY
       WCI = WIND CHILL INDEX
       VSB = VISIBILITY
       HX  = HEAT INDEX
$$




USA.gov is the U.S. government's official web portal to all federal, state and local government web resources and services.